Date String (YYYY-MM-DD hh:mm:ss) UTC,Instrument flags,absolute air pressure of the measurement (hPa),sample flow rate (lpm),inlet stack bypass flow (lpm),air temperature of the measurement (°C),ambient temperature measured by the external sensor (°C),aerosol sample conditioner tube jacket temperature (°C),OPC LED temperature (°C),internal box temperature (°C),relative humidity of the measurement (%),span deviation,mass concentration of particles derived from Lorenz-Mie calculation of OPC scattering (μg/m³),mass concentration of particles derived from Lorenz-Mie calculation of OPC scattering (μg/m³),mass concentration of particles derived from Lorenz-Mie calculation of OPC scattering (μg/m³)
DateTimeUTC,F1_M11,P_M11,Q1_M11,Q2_M11,T1_M11,T2_M11,T3_M11,T4_M11,T5_M11,U1_M11,ZSPAN_M11,X0_M11,X2_M11,X1_M11
2023-07-28 16:00:00,SystemResetWarning,0834.8,5.00,000.00,029.7,027.7,000.0,038.0,031.0,33.0,0000.0,0009.05,0004.45,0003.66
2023-07-28 16:01:00,SystemResetWarning,0834.9,4.98,000.00,029.7,027.9,000.0,038.0,031.1,34.3,0000.0,0009.55,0004.45,0003.65
2023-07-28 16:02:00,SystemResetWarning,0834.8,4.99,000.00,029.8,027.6,000.0,038.0,031.1,33.9,0000.0,0009.69,0004.46,0003.66
2023-07-28 16:03:00,SystemResetWarning,0834.7,5.00,000.00,029.8,026.1,000.0,037.9,030.9,34.1,0000.0,0010.16,0004.50,0003.67
2023-07-28 16:04:00,SystemResetWarning,0834.8,5.03,000.00,029.7,025.4,000.0,037.8,030.8,33.8,0000.0,0011.39,0004.57,0003.67
2023-07-28 16:05:00,SystemResetWarning,0834.8,4.98,000.00,029.7,025.5,000.0,037.8,030.7,32.8,0000.0,0011.97,0004.63,0003.69
2023-07-28 16:06:00,SystemResetWarning,0834.8,4.99,000.00,029.7,025.8,000.0,037.8,030.6,32.6,0000.0,0012.16,0004.64,0003.71
2023-07-28 16:07:00,SystemResetWarning,0834.8,5.02,000.00,029.7,026.3,000.0,037.9,030.7,32.9,0000.0,0012.23,0004.66,0003.73
2023-07-28 16:08:00,SystemResetWarning,0834.7,4.99,000.00,029.7,026.6,000.0,037.9,030.8,33.6,0000.0,0012.44,0004.68,0003.73
2023-07-28 16:09:00,SystemResetWarning,0834.7,5.00,000.00,029.7,027.0,000.0,037.9,030.8,31.3,0000.0,0012.94,0004.64,0003.74
2023-07-28 16:10:00,SystemResetWarning,0834.8,5.00,000.00,029.7,027.3,000.0,038.0,030.9,31.2,0000.0,0013.15,0004.63,0003.73
2023-07-28 16:11:00,SystemResetWarning,0835.1,5.00,000.00,029.7,027.6,000.0,038.0,031.0,31.2,0000.0,0013.11,0004.60,0003.72
2023-07-28 16:12:00,SystemResetWarning,0835.0,5.01,000.00,029.8,027.7,000.0,038.0,031.0,30.4,0000.0,0012.93,0004.63,0003.72
2023-07-28 16:13:00,SystemResetWarning,0835.2,4.99,000.00,029.8,027.0,000.0,037.9,031.0,31.2,0000.0,0013.34,0004.59,0003.71
2023-07-28 16:14:00,SystemResetWarning,0834.8,5.00,000.00,029.7,025.6,000.0,037.8,030.8,28.7,0000.0,0013.10,0004.57,0003.70
2023-07-28 16:15:00,SystemResetWarning,0834.7,5.01,000.00,029.7,025.3,000.0,037.7,030.6,29.1,0000.0,0011.91,0004.51,0003.68
2023-07-28 16:16:00,SystemResetWarning,0834.7,5.01,000.00,029.6,025.5,000.0,037.8,030.4,30.4,0000.0,0011.71,0004.47,0003.66
2023-07-28 16:17:00,SystemResetWarning,0834.7,5.00,000.00,029.5,025.9,000.0,037.8,030.5,29.5,0000.0,0011.71,0004.49,0003.65
2023-07-28 16:18:00,SystemResetWarning,0834.7,4.99,000.00,029.5,026.3,000.0,037.8,030.6,29.6,0000.0,0011.69,0004.49,0003.63
2023-07-28 16:19:00,SystemResetWarning,0834.7,5.00,000.00,029.5,026.7,000.0,037.8,030.7,28.3,0000.0,0011.60,0004.49,0003.63
2023-07-28 16:20:00,SystemResetWarning,0834.7,5.01,000.00,029.5,027.1,000.0,037.9,030.8,27.6,0000.0,0011.16,0004.51,0003.63
2023-07-28 16:21:00,SystemResetWarning,0834.7,5.01,000.00,029.5,027.3,000.0,037.9,030.8,29.0,0000.0,0010.99,0004.49,0003.63
2023-07-28 16:22:00,SystemResetWarning,0834.9,4.98,000.00,029.5,027.6,000.0,037.9,030.9,30.0,0000.0,0010.83,0004.50,0003.63
2023-07-28 16:23:00,SystemResetWarning,0835.2,4.99,000.00,029.6,027.8,000.0,037.9,031.0,30.8,0000.0,0010.17,0004.47,0003.63
2023-07-28 16:24:00,SystemResetWarning,0835.1,5.00,000.00,029.6,027.4,000.0,037.8,031.0,30.4,0000.0,0009.81,0004.50,0003.64
2023-07-28 16:25:00,SystemResetWarning,0834.8,5.00,000.00,029.5,025.9,000.0,037.7,030.7,29.3,0000.0,0009.39,0004.51,0003.62
2023-07-28 16:26:00,SystemResetWarning,0834.7,5.01,000.00,029.5,025.4,000.0,037.6,030.6,29.1,0000.0,0009.30,0004.52,0003.62
2023-07-28 16:27:00,SystemResetWarning,0834.8,5.02,000.00,029.4,025.6,000.0,037.6,030.5,29.9,0000.0,0008.92,0004.54,0003.63
2023-07-28 16:28:00,SystemResetWarning,0834.9,4.99,000.00,029.3,026.0,000.0,037.7,030.5,31.7,0000.0,0009.09,0004.54,0003.63
2023-07-28 16:29:00,SystemResetWarning,0834.8,5.00,000.00,029.3,026.4,000.0,037.7,030.6,31.5,0000.0,0009.23,0004.52,0003.62
2023-07-28 16:30:00,SystemResetWarning,0834.8,5.00,000.00,029.3,026.8,000.0,037.7,030.6,30.8,0000.0,0009.15,0004.49,0003.60
2023-07-28 16:31:00,SystemResetWarning,0834.9,5.01,000.00,029.3,027.1,000.0,037.7,030.7,30.9,0000.0,0008.98,0004.45,0003.57
2023-07-28 16:32:00,SystemResetWarning,0834.9,4.99,000.00,029.4,027.4,000.0,037.7,030.8,29.8,0000.0,0008.82,0004.42,0003.55
2023-07-28 16:33:00,SystemResetWarning,0834.9,5.00,000.00,029.4,027.6,000.0,037.8,030.9,30.4,0000.0,0008.42,0004.31,0003.53
2023-07-28 16:34:00,SystemResetWarning,0834.8,4.99,000.00,029.4,027.4,000.0,037.7,030.9,31.1,0000.0,0008.30,0004.24,0003.50
2023-07-28 16:35:00,SystemResetWarning,0834.9,5.00,000.00,029.4,026.0,000.0,037.6,030.6,30.5,0000.0,0008.34,0004.20,0003.47
2023-07-28 16:36:00,SystemResetWarning,0835.1,5.01,000.00,029.3,025.3,000.0,037.5,030.5,30.7,0000.0,0008.41,0004.19,0003.45
2023-07-28 16:37:00,SystemResetWarning,0834.9,5.01,000.00,029.2,025.5,000.0,037.5,030.4,30.0,0000.0,0008.34,0004.14,0003.42
2023-07-28 16:38:00,SystemResetWarning,0835.0,5.00,000.00,029.2,025.9,000.0,037.5,030.4,30.6,0000.0,0008.35,0004.13,0003.40
2023-07-28 16:39:00,SystemResetWarning,0835.1,4.99,000.00,029.2,026.3,000.0,037.6,030.5,31.3,0000.0,0007.97,0004.06,0003.39
2023-07-28 16:40:00,SystemResetWarning,0834.8,5.00,000.00,029.2,026.7,000.0,037.6,030.5,31.9,0000.0,0007.73,0004.04,0003.39
2023-07-28 16:41:00,SystemResetWarning,0834.7,5.01,000.00,029.2,027.0,000.0,037.6,030.6,31.2,0000.0,0008.08,0004.04,0003.40
2023-07-28 16:42:00,SystemResetWarning,0834.9,5.01,000.00,029.2,027.3,000.0,037.6,030.7,32.2,0000.0,0008.36,0004.08,0003.40
2023-07-28 16:43:00,SystemResetWarning,0835.0,4.99,000.00,029.2,027.6,000.0,037.6,030.8,31.2,0000.0,0008.48,0004.08,0003.40
2023-07-28 16:44:00,SystemResetWarning,0835.1,4.99,000.00,029.3,027.5,000.0,037.6,030.8,31.3,0000.0,0008.59,0004.07,0003.41
2023-07-28 16:45:00,SystemResetWarning,0835.0,5.01,000.00,029.3,026.2,000.0,037.5,030.7,31.5,0000.0,0008.64,0004.11,0003.43
2023-07-28 16:46:00,SystemResetWarning,0834.5,5.00,000.00,029.2,025.4,000.0,037.4,030.5,32.2,0000.0,0009.66,0004.13,0003.44
2023-07-28 16:47:00,SystemResetWarning,0834.5,5.01,000.00,029.1,025.5,000.0,037.4,030.4,31.3,0000.0,0010.92,0004.14,0003.45
2023-07-28 16:48:00,SystemResetWarning,0834.5,5.01,000.00,029.1,025.8,000.0,037.4,030.3,32.4,0000.0,0011.48,0004.15,0003.47
2023-07-28 16:49:00,SystemResetWarning,0834.5,4.99,000.00,029.1,026.3,000.0,037.4,030.4,32.3,0000.0,0011.85,0004.20,0003.47
2023-07-28 16:50:00,SystemResetWarning,0834.5,5.00,000.00,029.1,026.7,000.0,037.5,030.5,33.0,0000.0,0012.00,0004.25,0003.48
2023-07-28 16:51:00,SystemResetWarning,0834.5,5.00,000.00,029.1,027.0,000.0,037.5,030.6,32.4,0000.0,0012.18,0004.29,0003.48
2023-07-28 16:52:00,SystemResetWarning,0834.5,5.01,000.00,029.1,027.3,000.0,037.5,030.7,34.1,0000.0,0012.73,0004.30,0003.48
2023-07-28 16:53:00,SystemResetWarning,0834.6,5.00,000.00,029.2,027.3,000.0,037.5,030.8,33.8,0000.0,0012.64,0004.29,0003.47
2023-07-28 16:54:00,SystemResetWarning,0834.5,4.98,000.00,029.2,026.1,000.0,037.4,030.6,31.1,0000.0,0012.50,0004.32,0003.48
2023-07-28 16:55:00,SystemResetWarning,0834.5,5.00,000.00,029.1,025.1,000.0,037.3,030.4,31.0,0000.0,0012.42,0004.36,0003.48
2023-07-28 16:56:00,SystemResetWarning,0834.5,5.02,000.00,029.0,025.3,000.0,037.3,030.3,31.5,0000.0,0012.50,0004.39,0003.48
2023-07-28 16:57:00,SystemResetWarning,0834.5,4.99,000.00,029.0,025.7,000.0,037.3,030.2,31.9,0000.0,0011.61,0004.40,0003.49
2023-07-28 16:58:00,SystemResetWarning,0834.5,5.00,000.00,028.9,026.1,000.0,037.3,030.3,32.7,0000.0,0010.22,0004.37,0003.50
2023-07-28 16:59:00,SystemResetWarning,0834.5,5.00,000.00,028.9,026.5,000.0,037.3,030.4,32.0,0000.0,0009.86,0004.35,0003.51
